Zurück zum Katalog

SL-16 DEB

AktivLEO
NORAD 22456·DEBRIS·🇷🇺 Russia

Gestartet Dec 25, 1992 von Baikonur Cosmodrome

Loading…

Nächste Überflüge (nächste 24 Stunden)

TLE

AktuellSource: Space-Track

Epoche: Sep 14, 2026, 12:54 UTC

1 22456U 92093EV  26257.53801911  .00010408  00000-0  15886-2 0  9995
2 22456  71.2253 283.3095 0045260 169.3723 344.5424 14.73308395727970

Verfolge SL-16 DEB in Echtzeit mit AllMySat

Download on the App Store